User: anonymous   Login
Location: Caltech
(34.1382°N, 118.1253°W)
Time: 02:30:04
(UTC-08:00)
Language:

CZ-4B DEB - Orbit

View from above orbital plane
View from above orbital plane
View from above satellite
View from above satellite

Ground track
Ground track

The orbit data is extracted from the following two-line orbital elements,

1 27433U 02024D   18052.87355791  .00000093  00000-0  75093-4 0  9998
2 27433  98.9995  31.4753 0015666  67.4119 292.8708 14.12241277812418
Epoch (UTC): 21 February 2018 20:57:55
Eccentricity: 0.0015666
inclination: 98.9995°
perigee height: 840 km
apogee height: 863 km
right ascension of ascending node: 31.4753°
argument of perigee: 67.4119°
revolutions per day: 14.12241277
mean anomaly at epoch: 292.8708°
orbit number at epoch: 81241

The dashed part of the orbit path shows where the satellite is in the earth's shadow,  

DLR